W3EJE-13 Weather Reports


Display with metric or nautical units.
time (UTC)temp
F
wind
direction
speed
MPH
gust
MPH
rain 1hr
in
rain 24hr
in
rain mn
in
humidity
%
barometer
mb
20260831200226 78 257 2.0 2.0 0.00 0.00 0.00 85 1023.1
20260831195722 78 266 2.0 3.0 0.00 0.00 0.00 85 1022.8
20260831195218 78 267 3.0 3.0 0.00 0.00 0.00 85 1023.0
20260831194712 78 275 5.0 6.0 0.00 0.00 0.00 83 1023.2
20260831194208 78 253 2.0 2.0 0.00 0.00 0.00 84 1023.0
20260831193701 78 260 3.0 3.0 0.00 0.00 0.00 83 1023.1
20260831193157 78 262 0.0 0.0 0.00 0.00 0.00 84 1023.3
20260831192652 78 263 3.0 3.0 0.00 0.00 0.00 83 1023.2
20260831192147 78 259 2.0 3.0 0.00 0.00 0.00 83 1023.1
20260831191643 79 276 5.0 6.0 0.00 0.00 0.00 84 1023.4
20260831191139 78 262 3.0 3.0 0.00 0.00 0.00 82 1023.4
20260831190634 79 258 3.0 5.0 0.00 0.00 0.00 85 1023.3
20260831190132 79 272 4.0 6.0 0.00 0.00 0.00 82 1023.1
20260831185629 79 260 4.0 5.0 0.00 0.00 0.00 81 1023.4
20260831185124 79 250 5.0 5.0 0.00 0.00 0.00 80 1023.6
20260831184624 80 254 4.0 5.0 0.00 0.00 0.00 79 1023.5
20260831184120 80 265 3.0 3.0 0.00 0.00 0.00 82 1023.3
20260831183618 80 268 2.0 2.0 0.00 0.00 0.00 82 1023.2
20260831183118 80 289 6.0 6.0 0.00 0.00 0.00 83 1023.2
20260831182617 80 305 5.0 6.0 0.00 0.00 0.00 83 1023.2
20260831182114 79 254 0.0 0.0 0.00 0.00 0.00 82 1023.1
20260831181614 78 272 3.0 3.0 0.00 0.00 0.00 85 1023.5
20260831181108 78 267 2.0 2.0 0.00 0.00 0.00 84 1023.4
20260831180603 78 253 1.0 1.0 0.00 0.00 0.00 85 1023.5
20260831180058 77 234 1.0 1.0 0.00 0.00 0.00 85 1023.4
20260831175553 77 257 1.0 2.0 0.00 0.00 0.00 86 1023.5
20260831175050 77 265 2.0 2.0 0.00 0.00 0.00 88 1023.5
20260831174544 77 285 2.0 3.0 0.00 0.00 0.00 87 1023.6
20260831174038 77 257 1.0 2.0 0.00 0.00 0.00 86 1023.6
20260831173537 77 254 3.0 3.0 0.00 0.00 0.00 86 1023.6
20260831173033 77 278 3.0 3.0 0.00 0.00 0.00 87 1023.5
20260831172528 77 248 1.0 1.0 0.00 0.00 0.00 86 1023.7
20260831172023 77 257 1.0 1.0 0.00 0.00 0.00 86 1023.7
20260831171519 77 246 3.0 3.0 0.00 0.00 0.00 86 1023.7
20260831171016 77 261 1.0 1.0 0.00 0.00 0.00 86 1023.9
20260831170511 78 249 3.0 3.0 0.00 0.00 0.00 85 1023.6
20260831170009 77 256 2.0 3.0 0.00 0.00 0.00 85 1023.6
20260831165503 78 22 7.0 8.0 0.00 0.00 0.00 85 1023.7
20260831165000 78 219 1.0 2.0 0.00 0.00 0.00 84 1023.5
20260831164456 78 256 2.0 3.0 0.00 0.00 0.00 84 1023.6
20260831163951 78 256 1.0 1.0 0.00 0.00 0.00 85 1023.6
20260831163446 78 249 1.0 2.0 0.00 0.00 0.00 87 1023.7
20260831162945 78 263 1.0 1.0 0.00 0.00 0.00 88 1023.6
20260831162440 77 253 0.0 0.0 0.00 0.00 0.00 87 1024.0
20260831161938 77 246 0.0 0.0 0.00 0.00 0.00 88 1023.9
20260831161435 77 250 0.0 0.0 0.00 0.00 0.00 89 1023.9
20260831160931 77 248 0.0 0.0 0.00 0.00 0.00 88 1023.8
20260831160431 77 251 0.0 0.0 0.00 0.00 0.00 88 1023.8
20260831155930 77 246 0.0 0.0 0.00 0.00 0.00 89 1023.9
20260831155425 76 247 0.0 0.0 0.00 0.00 0.00 90 1023.9
20260831154921 76 256 0.0 0.0 0.00 0.00 0.00 91 1024.2
20260831154417 76 297 0.0 0.0 0.00 0.00 0.00 91 1023.9
20260831153915 75 251 0.0 0.0 0.00 0.00 0.00 92 1024.2
20260831153411 75 252 0.0 0.0 0.00 0.00 0.00 92 1024.2
20260831152907 75 250 0.0 0.0 0.00 0.00 0.00 92 1024.3
20260831152403 75 259 0.0 0.0 0.00 0.00 0.00 93 1023.9
20260831151858 75 249 0.0 0.0 0.00 0.00 0.00 92 1024.3
20260831151357 75 272 0.0 0.0 0.00 0.00 0.00 92 1024.2
20260831150852 75 260 0.0 0.0 0.00 0.00 0.00 91 1024.3
20260831150348 75 256 0.0 0.0 0.00 0.00 0.00 92 1024.2
20260831145847 74 262 0.0 0.0 0.00 0.00 0.00 92 1024.2
20260831145343 74 260 0.0 0.0 0.00 0.00 0.00 92 1024.2
20260831144839 74 250 0.0 0.0 0.00 0.00 0.00 93 1024.2
20260831144334 74 316 0.0 0.0 0.00 0.00 0.00 93 1024.1
20260831143829 74 259 0.0 0.0 0.00 0.00 0.00 93 1024.2
20260831143324 73 246 0.0 0.0 0.00 0.00 0.00 94 1024.2
20260831142819 73 249 0.0 0.0 0.00 0.00 0.00 94 1024.0
20260831142315 73 256 0.0 0.0 0.00 0.00 0.00 95 1024.2
20260831141815 72 251 0.0 0.0 0.00 0.00 0.00 96 1024.2
20260831141309 72 270 0.0 0.0 0.00 0.00 0.00 97 1024.1
20260831140804 71 266 0.0 0.0 0.00 0.00 0.00 98 1024.1
20260831140258 71 263 0.0 0.0 0.00 0.00 0.00 99 1024.0
20260831135756 70 252 0.0 0.0 0.00 0.00 0.00 99 1024.0
20260831135252 70 258 0.0 0.0 0.00 0.00 0.00 99 1024.0
20260831134747 69 253 0.0 0.0 0.00 0.00 0.00 99 1024.1
20260831134244 69 253 0.0 0.0 0.00 0.00 0.00 99 1024.2
20260831133743 69 249 0.0 0.0 0.00 0.00 0.00 99 1024.0
20260831133243 69 247 0.0 0.0 0.00 0.00 0.00 99 1024.2
20260831132738 68 254 0.0 0.0 0.00 0.00 0.00 99 1024.1
20260831132233 68 246 0.0 0.0 0.00 0.00 0.00 99 1024.0
20260831131732 68 247 0.0 0.0 0.00 0.00 0.00 99 1023.7
20260831131230 68 246 0.0 0.0 0.00 0.00 0.00 99 1023.9
20260831130724 67 249 0.0 0.0 0.00 0.00 0.00 99 1024.1
20260831130219 67 249 0.0 0.0 0.00 0.00 0.00 99 1024.1
20260831125718 67 247 0.0 0.0 0.00 0.00 0.00 99 1024.0
20260831125214 67 251 0.0 0.0 0.00 0.00 0.00 99 1023.7
20260831124709 67 250 0.0 0.0 0.00 0.00 0.00 99 1024.2
20260831124205 67 256 0.0 0.0 0.00 0.00 0.00 99 1023.9
20260831123705 67 252 0.0 0.0 0.00 0.00 0.00 99 1024.1
20260831123204 66 254 0.0 0.0 0.00 0.00 0.00 99 1024.1
20260831122658 66 249 0.0 0.0 0.00 0.00 0.00 99 1024.0
20260831122154 66 251 0.0 0.0 0.00 0.00 0.00 99 1024.0
20260831121653 66 267 0.0 0.0 0.00 0.00 0.00 99 1023.9
20260831121150 66 244 0.0 0.0 0.00 0.00 0.00 99 1023.8
20260831120645 66 240 0.0 0.0 0.00 0.00 0.00 99 1023.8
20260831120139 66 238 0.0 0.0 0.00 0.00 0.00 99 1023.8
20260831115636 65 238 0.0 0.0 0.00 0.00 0.00 99 1023.9
20260831115131 65 243 0.0 0.0 0.00 0.00 0.00 99 1024.0
20260831114630 65 244 0.0 0.0 0.00 0.00 0.00 99 1023.8
20260831114125 65 244 0.0 0.0 0.00 0.00 0.00 99 1023.6
20260831113624 65 236 0.0 0.0 0.00 0.00 0.00 99 1023.7
20260831113120 64 236 0.0 0.0 0.00 0.00 0.00 99 1023.7
20260831112619 64 235 0.0 0.0 0.00 0.00 0.00 99 1023.5
20260831112114 64 237 0.0 0.0 0.00 0.00 0.00 99 1023.7
20260831111610 64 237 0.0 0.0 0.00 0.00 0.00 99 1023.5
20260831111106 64 237 0.0 0.0 0.00 0.00 0.00 99 1023.5
20260831110601 64 237 0.0 0.0 0.00 0.00 0.00 99 1023.4
20260831110056 64 237 0.0 0.0 0.00 0.00 0.00 99 1023.6
20260831105555 64 237 0.0 0.0 0.00 0.00 0.00 99 1023.5
20260831105050 64 237 0.0 0.0 0.00 0.00 0.00 99 1023.5
20260831104546 64 237 0.0 0.0 0.00 0.00 0.00 99 1023.5
20260831104042 64 237 0.0 0.0 0.00 0.00 0.00 99 1023.4
20260831103537 64 237 0.0 0.0 0.00 0.00 0.00 99 1023.5
20260831103033 64 236 0.0 0.0 0.00 0.00 0.00 99 1023.5
20260831102527 64 237 0.0 0.0 0.00 0.00 0.00 99 1023.3
20260831102022 64 237 0.0 0.0 0.00 0.00 0.00 99 1023.1
20260831101517 64 229 0.0 0.0 0.00 0.00 0.00 99 1023.2
20260831101013 64 236 0.0 0.0 0.00 0.00 0.00 99 1023.3
20260831100509 64 241 0.0 0.0 0.00 0.00 0.00 99 1023.3
20260831100005 64 235 0.0 0.0 0.00 0.00 0.00 99 1023.1
20260831095503 64 234 0.0 0.0 0.00 0.00 0.00 99 1023.2
20260831094958 65 239 0.0 0.0 0.00 0.00 0.00 99 1023.2
20260831094454 65 236 0.0 0.0 0.00 0.00 0.00 99 1023.3
20260831093949 65 235 0.0 0.0 0.00 0.00 0.00 99 1022.8
20260831093444 65 235 0.0 0.0 0.00 0.00 0.00 99 1023.2
20260831092941 65 239 0.0 0.0 0.00 0.00 0.00 99 1023.2
20260831092437 65 239 0.0 0.0 0.00 0.00 0.00 99 1022.8
20260831091932 65 235 0.0 0.0 0.00 0.00 0.00 99 1022.8
20260831091427 65 246 0.0 0.0 0.00 0.00 0.00 99 1022.7
20260831090922 66 234 0.0 0.0 0.00 0.00 0.00 99 1023.0
20260831090418 66 238 0.0 0.0 0.00 0.00 0.00 99 1023.0
20260831085914 65 246 0.0 0.0 0.00 0.00 0.00 99 1023.3
20260831085409 65 248 0.0 0.0 0.00 0.00 0.00 99 1023.2
20260831084908 65 248 0.0 0.0 0.00 0.00 0.00 99 1023.1
20260831084404 65 248 0.0 0.0 0.00 0.00 0.00 99 1022.7
20260831083901 65 237 0.0 0.0 0.00 0.00 0.00 99 1022.8
20260831083356 65 236 0.0 0.0 0.00 0.00 0.00 99 1022.7
20260831082854 65 236 0.0 0.0 0.00 0.00 0.00 99 1022.8
20260831082349 66 238 0.0 0.0 0.00 0.00 0.00 99 1022.7
20260831081845 66 240 0.0 0.0 0.00 0.00 0.00 99 1022.7
20260831081340 66 244 0.0 0.0 0.00 0.00 0.00 99 1023.0
20260831080836 66 245 0.0 0.0 0.00 0.00 0.00 99 1023.0
20260831080336 66 246 0.0 0.0 0.00 0.00 0.00 99 1023.1
20260831075832 66 243 0.0 0.0 0.00 0.00 0.00 99 1023.2
20260831075327 66 243 0.0 0.0 0.00 0.00 0.00 99 1023.4
20260831074822 65 245 0.0 0.0 0.00 0.00 0.00 99 1023.2
20260831074321 66 238 0.0 0.0 0.00 0.00 0.00 99 1023.1
20260831073817 66 238 0.0 0.0 0.00 0.00 0.00 99 1023.0
20260831073315 66 238 0.0 0.0 0.00 0.00 0.00 99 1023.3
20260831072811 66 238 0.0 0.0 0.00 0.00 0.00 99 1023.2
20260831072307 66 238 0.0 0.0 0.00 0.00 0.00 99 1023.3
20260831071803 66 238 0.0 0.0 0.00 0.00 0.00 99 1023.2
20260831071257 66 238 0.0 0.0 0.00 0.00 0.00 99 1023.2
20260831070756 66 238 0.0 0.0 0.00 0.00 0.00 99 1023.3
20260831070255 67 238 0.0 0.0 0.00 0.00 0.00 99 1023.2
20260831065755 67 238 0.0 0.0 0.00 0.00 0.00 99 1023.3
20260831065253 67 238 0.0 0.0 0.00 0.00 0.00 99 1023.3
20260831064749 67 238 0.0 0.0 0.00 0.00 0.00 99 1023.2
20260831064243 67 238 0.0 0.0 0.00 0.00 0.00 99 1023.4
20260831063740 67 239 0.0 0.0 0.00 0.00 0.00 99 1023.3
20260831063239 67 238 0.0 0.0 0.00 0.00 0.00 99 1023.3
20260831062734 67 239 0.0 0.0 0.00 0.00 0.00 99 1023.4
20260831062229 67 239 0.0 0.0 0.00 0.00 0.00 99 1023.5
20260831061727 67 244 0.0 0.0 0.00 0.00 0.00 99 1023.4
20260831061222 67 246 0.0 0.0 0.00 0.00 0.00 99 1023.6
20260831060718 67 239 0.0 0.0 0.00 0.00 0.00 99 1023.5
20260831060213 68 237 0.0 0.0 0.00 0.00 0.00 99 1023.6
20260831055712 67 242 0.0 0.0 0.00 0.00 0.00 99 1023.8
20260831055208 68 241 0.0 0.0 0.00 0.00 0.00 99 1023.5
20260831054708 68 246 0.0 0.0 0.00 0.00 0.00 99 1023.5
20260831054202 68 240 0.0 0.0 0.00 0.00 0.00 99 1023.7
20260831053656 68 243 0.0 0.0 0.00 0.00 0.00 99 1023.6
20260831053155 68 242 0.0 0.0 0.00 0.00 0.00 99 1023.5
20260831052654 68 240 0.0 0.0 0.00 0.00 0.00 99 1023.6
20260831052154 68 244 0.0 0.0 0.00 0.00 0.00 99 1023.6
20260831051652 68 248 0.0 0.0 0.00 0.00 0.00 99 1023.6
20260831051151 68 249 0.0 0.0 0.00 0.00 0.00 99 1023.7
20260831050646 68 240 0.0 0.0 0.00 0.00 0.00 99 1023.6
20260831050144 68 240 0.0 0.0 0.00 0.00 0.00 99 1023.5
20260831045644 68 237 0.0 0.0 0.00 0.00 0.00 99 1023.8
20260831045139 68 234 0.0 0.0 0.00 0.00 0.00 99 1023.5
20260831044635 68 234 0.0 0.0 0.00 0.00 0.00 99 1023.6
20260831044130 69 237 0.0 0.0 0.00 0.00 0.00 99 1023.4
20260831043625 69 237 0.0 0.0 0.00 0.00 0.00 99 1023.7
20260831043121 69 229 0.0 0.0 0.00 0.00 0.00 99 1023.6
20260831042620 69 241 0.0 0.0 0.00 0.00 0.00 99 1023.7
20260831042115 68 223 0.0 0.0 0.00 0.00 0.00 99 1023.9
20260831041609 69 248 0.0 0.0 0.00 0.00 0.00 99 1023.5
20260831041103 69 224 0.0 0.0 0.00 0.00 0.00 99 1023.6
20260831040557 69 239 0.0 0.0 0.00 0.02 0.02 99 1024.0
20260831040052 69 239 0.0 0.0 0.00 0.02 0.02 99 1024.0
20260831035549 69 239 0.0 0.0 0.00 0.02 0.02 99 1024.3
20260831035045 69 256 0.0 0.0 0.00 0.02 0.02 99 1024.0
20260831034544 69 244 0.0 0.0 0.00 0.02 0.02 99 1023.7
20260831034040 69 247 0.0 0.0 0.00 0.02 0.02 99 1024.1
20260831033535 69 212 0.0 0.0 0.00 0.02 0.02 99 1023.8
20260831033030 69 235 0.0 0.0 0.05 0.02 0.02 99 1024.1
20260831032524 70 239 0.0 0.0 0.05 0.02 0.02 99 1024.2
20260831032020 70 228 0.0 0.0 0.07 0.01 0.01 99 1024.1
20260831031519 70 231 0.0 0.0 0.07 0.01 0.01 99 1024.3
20260831031019 70 235 0.0 0.0 0.00 0.00 0.00 99 1024.3
20260831030518 69 235 0.0 0.0 0.00 0.00 0.00 99 1024.4
20260831030017 70 235 0.0 0.0 0.00 0.00 0.00 99 1024.5
20260831025510 70 235 0.0 0.0 0.00 0.00 0.00 99 1024.4
20260831025005 70 235 0.0 0.0 0.00 0.00 0.00 99 1024.3
20260831024500 70 235 0.0 0.0 0.00 0.00 0.00 98 1024.2
20260831023954 70 235 0.0 0.0 0.00 0.00 0.00 98 1024.1
20260831023452 70 235 0.0 0.0 0.00 0.00 0.00 97 1024.1
20260831022948 71 236 0.0 0.0 0.00 0.00 0.00 97 1024.2
20260831022446 71 236 0.0 0.0 0.00 0.00 0.00 97 1024.2
20260831021942 71 236 0.0 0.0 0.00 0.00 0.00 96 1024.4
20260831021441 71 239 0.0 0.0 0.00 0.00 0.00 96 1024.5
20260831020937 71 240 0.0 0.0 0.00 0.00 0.00 95 1024.3
20260831020436 71 240 0.0 0.0 0.00 0.00 0.00 95 1024.0
20260831015931 71 240 0.0 0.0 0.00 0.00 0.00 95 1024.1
20260831015428 71 239 0.0 0.0 0.00 0.00 0.00 94 1024.2
20260831014922 71 240 0.0 0.0 0.00 0.00 0.00 95 1024.1
20260831014417 71 240 0.0 0.0 0.00 0.00 0.00 94 1024.2
20260831013913 71 240 0.0 0.0 0.00 0.00 0.00 94 1023.9
20260831013408 71 240 0.0 0.0 0.00 0.00 0.00 94 1024.0
20260831012902 71 239 0.0 0.0 0.00 0.00 0.00 94 1024.1
20260831012358 72 240 0.0 0.0 0.00 0.00 0.00 94 1024.0
20260831011857 72 240 0.0 0.0 0.00 0.00 0.00 94 1024.0
20260831011352 72 240 0.0 0.0 0.00 0.00 0.00 94 1023.8
20260831010848 72 240 0.0 0.0 0.00 0.00 0.00 94 1023.9
20260831010348 72 240 0.0 0.0 0.00 0.00 0.00 93 1023.5
20260831005844 72 240 0.0 0.0 0.00 0.00 0.00 93 1023.4
20260831005339 72 240 0.0 0.0 0.00 0.00 0.00 94 1023.4
20260831004834 72 240 0.0 0.0 0.00 0.00 0.00 94 1023.4
20260831004330 72 240 0.0 0.0 0.00 0.00 0.00 93 1023.2
20260831003826 73 241 0.0 0.0 0.00 0.00 0.00 92 1023.1
20260831003322 73 231 0.0 0.0 0.00 0.00 0.00 90 1023.1
20260831002821 73 229 0.0 0.0 0.00 0.00 0.00 90 1022.7
20260831002320 73 243 0.0 0.0 0.00 0.00 0.00 90 1022.8
20260831001816 73 244 0.0 0.0 0.00 0.00 0.00 90 1022.7
20260831001311 73 240 0.0 0.0 0.00 0.00 0.00 89 1022.8
20260831000809 74 231 0.0 0.0 0.00 0.00 0.00 89 1022.8
20260831000310 74 231 0.0 0.0 0.00 0.00 0.00 89 1022.5
20260830235807 74 227 0.0 0.0 0.00 0.00 0.00 89 1022.4
20260830235305 74 233 0.0 0.0 0.00 0.00 0.00 89 1022.4
20260830234757 75 233 0.0 0.0 0.00 0.00 0.00 86 1022.2
20260830234253 75 233 0.0 0.0 0.00 0.00 0.00 85 1022.6
20260830233748 76 231 0.0 0.0 0.00 0.00 0.00 84 1022.1
20260830233244 76 241 0.0 0.0 0.00 0.00 0.00 84 1022.2
20260830232739 77 242 0.0 0.0 0.00 0.00 0.00 84 1022.4
20260830232235 77 243 0.0 0.0 0.00 0.00 0.00 82 1022.3
20260830231731 78 246 0.0 0.0 0.00 0.00 0.00 81 1022.5
20260830231231 78 245 0.0 0.0 0.00 0.00 0.00 78 1022.5
20260830230726 79 248 1.0 1.0 0.00 0.00 0.00 76 1022.3
20260830230221 79 256 2.0 2.0 0.00 0.00 0.00 76 1022.4
20260830225720 79 248 1.0 1.0 0.00 0.00 0.00 77 1022.2
20260830225215 79 245 1.0 2.0 0.00 0.00 0.00 75 1022.4
20260830224714 80 263 4.0 5.0 0.00 0.00 0.00 72 1022.5
20260830224210 80 290 2.0 3.0 0.00 0.00 0.00 74 1022.3
20260830223707 80 281 3.0 3.0 0.00 0.00 0.00 72 1023.0
20260830223202 80 259 2.0 2.0 0.00 0.00 0.00 72 1022.7
20260830222656 80 268 3.0 3.0 0.00 0.00 0.00 73 1022.5
20260830222152 80 273 4.0 6.0 0.00 0.00 0.00 72 1022.4
20260830221648 81 271 5.0 6.0 0.00 0.00 0.00 70 1022.4
20260830221144 81 279 4.0 6.0 0.00 0.00 0.00 71 1022.7
20260830220639 81 251 2.0 2.0 0.00 0.00 0.00 70 1022.4
20260830220138 81 261 2.0 2.0 0.00 0.00 0.00 71 1022.5
20260830215637 81 261 2.0 2.0 0.00 0.00 0.00 71 1022.7
20260830215131 80 250 3.0 3.0 0.00 0.00 0.00 71 1022.7
20260830214627 80 247 1.0 1.0 0.00 0.00 0.00 72 1022.8
20260830214121 81 239 2.0 2.0 0.00 0.00 0.00 71 1022.8
20260830213621 81 287 3.0 3.0 0.00 0.00 0.00 70 1022.6
20260830213116 81 302 3.0 3.0 0.00 0.00 0.00 72 1022.5
20260830212612 81 324 1.0 2.0 0.00 0.00 0.00 68 1022.6
20260830212107 81 308 3.0 3.0 0.00 0.00 0.00 70 1022.6
20260830211601 81 261 3.0 3.0 0.00 0.00 0.00 72 1022.5
20260830211055 81 247 4.0 6.0 0.00 0.00 0.00 70 1022.3
20260830210551 81 284 4.0 5.0 0.00 0.00 0.00 70 1022.3
20260830210050 81 296 3.0 5.0 0.00 0.00 0.00 70 1022.6
20260830205548 81 294 3.0 5.0 0.00 0.00 0.00 70 1022.6
20260830205043 80 289 5.0 6.0 0.00 0.00 0.00 71 1022.8
20260830204542 81 263 4.0 5.0 0.00 0.00 0.00 73 1022.5
20260830204042 81 302 3.0 3.0 0.00 0.00 0.00 72 1022.7
20260830203539 81 298 7.0 8.0 0.00 0.00 0.00 71 1022.8
20260830203038 79 276 5.0 6.0 0.00 0.00 0.00 75 1023.0
20260830202533 80 252 5.0 6.0 0.00 0.00 0.00 75 1022.7
20260830202029 82 279 5.0 7.0 0.00 0.00 0.00 71 1022.5
20260830201528 81 272 6.0 7.0 0.00 0.00 0.00 73 1022.6
20260830201023 81 239 3.0 5.0 0.00 0.00 0.00 73 1022.7